This is the latest recevied weather packets stored in our database for station/object KG4GJX. If no packets are shown the sender has not sent any weather packets the latest 10 day(s).
| Time | Temp. | Humidity | Pressure | Rain* | Wind** | Luminosity | Snow |
|---|---|---|---|---|---|---|---|
| 1777242249 | 26.11° C | 51% | 1012.8 hPa | 0 mm | - | - | - |
| 1777241587 | 26.11° C | 51% | 1012.5 hPa | 0 mm | - | - | - |
| 1777240924 | 26.67° C | 51% | 1012.5 hPa | 0 mm | - | - | - |
| 1777240262 | 26.67° C | 51% | 1012.5 hPa | 0 mm | - | - | - |
| 1777239600 | 26.67° C | 50% | 1012.5 hPa | 0 mm | - | - | - |
| 1777238937 | 26.67° C | 52% | 1012.5 hPa | 0 mm | - | - | - |
| 1777238275 | 26.11° C | 52% | 1012.5 hPa | 0 mm | - | - | - |
| 1777237613 | 26.11° C | 52% | 1012.1 hPa | 0 mm | - | - | - |
| 1777236950 | 26.11° C | 53% | 1012.5 hPa | 0 mm | - | - | - |
| 1777236288 | 26.67° C | 48% | 1012.5 hPa | 0 mm | - | - | - |
| 1777235626 | 26.67° C | 50% | 1012.5 hPa | 0 mm | - | - | - |
| 1777234963 | 26.11° C | 53% | 1012.5 hPa | 0 mm | - | - | - |
| 1777234301 | 26.11° C | 51% | 1012.8 hPa | 0 mm | - | - | - |
| 1777233639 | 26.11° C | 54% | 1012.8 hPa | 0 mm | - | - | - |
| 1777232976 | 26.11° C | 57% | 1012.8 hPa | 0 mm | - | - | - |
| 1777232314 | 26.11° C | 56% | 1013.2 hPa | 0 mm | - | - | - |
| 1777231651 | 25.56° C | 57% | 1013.2 hPa | 0 mm | - | - | - |
| 1777230989 | 25° C | 60% | 1013.5 hPa | 0 mm | - | - | - |
| 1777230326 | 25° C | 60% | 1013.5 hPa | 0 mm | - | - | - |
| 1777229664 | 24.44° C | 63% | 1013.5 hPa | 0 mm | - | - | - |
| 1777229002 | 24.44° C | 61% | 1013.5 hPa | 0 mm | - | - | - |
| 1777228340 | 24.44° C | 67% | 1013.5 hPa | 0 mm | - | - | - |
| 1777227677 | 24.44° C | 65% | 1013.8 hPa | 0 mm | - | - | - |
| 1777227015 | 23.89° C | 69% | 1013.8 hPa | 0 mm | - | - | - |
| 1777226352 | 23.33° C | 67% | 1013.8 hPa | 0 mm | - | - | - |
* Rain latest hour (hover to see other rain measurements)
** Current wind speed in m/s (hover to see current wind gust speed)